Temp_Advection
nan nan nan nan nan nan nan nan nan nan nan nan nan nan nan nan nan nan nan nan nan nan nan nan nan nan nan nan nan nan nan nan nan nan nan nan nan nan nan nan nan nan nan nan nan nan nan
nan -0 -0 -0 -0 -0 -0 -0 -1 -1 -1 -1 -1 -1 -1 0 -0 -0 0 0 0 0 0 0 0 0 0 -0 -1 -0 -0 -0 0 0 -0 -0 0 0 0 0 0 0 -0 -0 -0 -0 nan
nan -0 -0 -0 -0 -0 -0 -0 -0 -1 -0 -1 -1 -1 -1 -0 -0 0 -0 0 0 0 0 0 0 0 -0 -1 -0 0 0 0 0 0 -0 0 0 0 0 0 -0 0 -0 -0 -0 -0 nan
nan -0 -0 -0 -0 -0 -0 -0 0 -0 -0 -0 -1 -1 -1 -1 -0 -0 -0 0 0 0 0 0 0 -0 -0 -0 0 0 0 0 0 0 0 0 0 0 0 -0 -0 0 0 -0 -0 -0 nan
nan -0 -0 -0 -0 -0 -0 -0 -0 -0 -0 -0 -1 -1 -1 -1 -1 -0 0 0 0 0 0 0 0 -0 -0 -0 -0 0 0 0 -0 0 0 0 0 0 0 0 -0 0 0 -0 -0 -0 nan
nan -0 0 0 -0 -0 -0 -0 0 -0 -0 -0 -0 -1 -1 -1 -1 -0 0 1 0 0 0 -0 0 -0 -0 0 0 0 0 0 0 0 0 0 0 0 0 0 0 0 -0 -0 -0 -0 nan
nan -0 -0 0 0 0 -0 -0 0 0 -1 -1 -0 -0 -1 -1 -1 -0 0 -0 -0 -0 0 -0 -0 -0 0 0 0 0 0 0 0 0 0 0 0 -0 -0 -0 -0 -0 -0 -0 -0 0 nan
nan -0 -0 -0 -0 -0 0 -0 -0 -0 -0 -1 -0 -0 -1 -1 -1 -1 0 -1 -1 -1 -0 -0 0 0 0 0 0 0 0 0 0 0 0 0 -0 -0 0 0 0 0 0 -0 -0 0 nan
nan -0 -0 -0 -0 -0 -0 -0 -0 -0 -0 -0 -0 -1 -1 -1 -1 -1 0 -0 -0 0 -0 0 1 -0 -0 0 -0 -0 -0 -0 -0 -0 0 0 -0 0 0 0 0 0 -0 -0 0 -0 nan
nan -0 -0 -0 -0 -0 -0 -0 -0 -0 -0 -0 -1 -1 -0 -1 -1 -0 0 1 0 0 -0 -0 0 -0 0 0 -0 -0 0 -0 -0 -0 -0 -0 -0 0 0 -0 0 -0 -0 0 0 0 nan
nan -0 0 0 -0 -0 -0 -0 -0 -0 -0 0 -0 -0 -0 -0 -1 -1 0 1 1 0 -0 0 -0 -0 -0 0 -0 0 0 0 -0 -0 -0 -0 0 0 -0 -0 -0 -0 0 0 0 0 nan
nan -0 -0 -0 -0 -0 -0 -0 -0 -0 -0 -0 -1 -0 0 -0 -1 -1 0 1 1 -0 -0 0 -0 -0 -0 -0 0 -0 0 0 0 -0 0 0 -0 -0 -0 -0 -0 -0 0 -0 0 -0 nan
nan -0 -0 -0 -0 -0 -0 -0 -0 -0 -0 -0 -0 -0 0 -0 -1 -1 0 0 -0 0 -0 -0 -0 -0 -0 -0 0 -0 -0 0 -0 0 0 -0 0 -0 -0 -0 0 0 0 -0 -0 -0 nan
nan -0 -0 -0 -0 -0 -0 -0 -0 -0 0 -0 -0 -0 -0 -1 -1 0 0 -0 0 -0 0 0 -0 0 0 0 0 0 -0 -0 -0 -0 -0 0 -0 0 0 0 -0 0 -0 -0 0 -0 nan
nan -0 -0 -0 -0 -0 -0 -0 -0 -0 -0 0 -0 0 0 0 1 1 1 0 -0 -0 -0 0 -0 0 0 0 0 0 0 -0 0 -0 -0 0 0 -0 0 -0 0 -0 -0 -0 -0 -0 nan
nan -0 -0 0 0 -0 -0 -0 -0 -0 -1 0 -0 0 -0 0 0 0 -0 0 0 0 -0 -0 -0 0 -0 -0 0 0 0 -0 0 0 0 -0 0 -0 -0 0 0 -0 -0 0 0 -0 nan
nan -0 -0 0 0 0 -0 -0 -0 -0 -0 -0 -0 -0 -0 -0 0 0 0 0 0 0 0 -0 -0 -0 -0 0 -0 -0 0 0 0 0 0 -0 -0 0 0 -0 -0 -0 -0 -0 -0 -0 nan
nan -0 -0 -0 0 0 -0 -0 -0 -0 -0 -0 -0 -0 0 -1 -0 0 0 0 -0 0 0 0 0 -0 -0 -0 0 0 0 -0 0 0 0 -0 0 0 -1 -0 -0 0 0 0 -0 0 nan
nan 0 0 -0 -0 0 -0 0 -0 -0 -0 1 -0 0 0 0 -0 -0 -0 0 0 0 0 -0 0 0 -0 -0 -0 0 0 -0 -0 -0 -0 -0 0 0 -0 0 0 0 0 0 0 -0 nan
nan 0 -0 0 -0 0 -0 -0 0 -0 0 0 -0 -0 -0 0 0 0 0 0 0 0 0 0 -0 -0 -0 -0 0 -0 -0 -0 0 -0 -0 -0 0 -0 -0 0 0 0 0 0 -0 -0 nan
nan 0 -0 -0 -0 -0 -0 -1 -0 -0 1 0 -0 -0 -0 0 -0 -0 0 -0 -0 0 0 0 0 -0 -0 0 0 0 0 0 -0 0 0 0 0 -0 -0 0 1 0 -0 -0 -0 -0 nan
nan -0 -0 -0 -0 0 -0 -0 -0 -1 0 -0 -0 -0 -0 0 0 0 -0 0 -0 -0 0 -0 -0 0 0 -0 0 -0 -0 -0 -0 -0 0 -0 0 -0 -1 -1 1 0 -0 0 -0 -0 nan
nan -0 0 -0 -0 -0 0 -0 -0 0 -1 -0 -1 -0 0 -0 0 -0 -0 -0 -0 0 -0 -0 -0 0 -0 -0 0 -0 -0 -0 0 -0 -0 0 -0 -0 -1 0 1 -0 0 -0 -0 -1 nan
nan -0 -0 -0 -0 -0 0 -0 -0 0 -0 -0 -0 -0 0 -0 -0 0 -0 -0 0 0 0 0 -0 0 -0 0 0 0 0 0 0 -0 -0 0 -0 -0 -0 -0 -0 0 0 0 -0 -0 nan
nan -0 -0 -0 0 0 0 0 0 0 0 0 0 -0 0 0 -0 -0 0 -0 0 -0 0 0 0 -0 0 0 0 -0 0 0 -0 -0 0 -0 -0 -0 -0 -0 -0 -0 0 -0 -0 -0 nan
nan -0 0 -0 0 0 0 0 -0 -0 -0 -0 0 0 0 -0 -0 -0 -0 0 -0 -0 -0 -0 0 -0 0 0 -0 0 0 -0 0 -0 0 -0 -0 0 -0 -0 -0 0 0 -0 -0 0 nan
nan 0 0 0 -0 -0 -0 0 -1 -0 -0 -0 0 0 0 0 -0 -0 -0 -0 -0 -0 -0 -0 0 0 0 0 -0 0 -0 0 -0 -0 -0 -0 0 -0 -0 -0 -0 0 0 -0 0 0 nan
nan -0 -0 -0 -0 -0 -0 -0 -0 -0 -0 -1 -0 0 0 0 0 0 -0 -0 -0 -0 -0 -0 -0 -0 -0 -0 -0 0 -0 -0 0 0 0 -0 0 -0 -0 0 -0 -0 0 -0 0 -0 nan
nan nan nan nan nan nan nan nan nan nan nan nan nan nan nan nan nan nan nan nan nan nan nan nan nan nan nan nan nan nan nan nan nan nan nan nan nan nan nan nan nan nan nan nan nan nan nan
Wind_Speed
25 25 27 27 26 28 27 26 25 25 24 19 21 19 20 20 21 15 14 15 11 8 6 5 5 5 6 7 11 4 2 4 7 23 20 11 6 5 3 2 2 3 3 5 7 9 10
25 26 26 27 27 26 28 28 27 26 25 19 21 17 24 20 20 20 13 15 12 10 7 6 5 6 7 3 9 14 7 3 6 15 18 16 5 8 3 3 3 2 4 8 10 13 12
26 26 27 27 27 28 28 27 27 27 27 25 21 21 16 23 22 21 15 12 13 10 8 6 6 6 8 12 6 5 14 7 7 13 15 16 9 7 6 1 3 4 5 7 9 11 8
25 27 28 28 29 27 30 30 30 29 28 26 24 23 20 18 23 21 19 14 12 9 8 6 6 7 7 5 7 12 15 11 9 12 9 7 11 7 4 1 2 3 3 3 3 1 7
25 27 27 28 29 29 29 29 30 33 27 26 25 22 25 20 24 21 22 18 11 10 9 7 7 6 7 4 6 8 14 15 11 11 10 8 7 4 3 2 4 4 3 5 5 6 2
25 26 29 33 30 31 30 31 32 31 28 29 26 23 22 22 18 22 22 16 14 13 10 6 7 6 7 2 3 6 15 12 11 10 8 6 4 3 3 5 6 4 5 6 5 1 4
27 29 30 30 30 29 30 33 32 33 29 29 25 24 20 23 14 21 27 24 14 5 15 9 6 3 2 4 6 5 15 14 11 9 5 4 5 8 11 6 4 1 3 11 7 8 11
29 29 30 32 32 32 31 32 32 32 28 29 24 20 19 19 20 24 40 30 29 10 6 27 18 11 3 5 5 5 16 10 7 4 6 3 10 9 8 5 10 11 13 15 11 9 11
28 29 31 33 33 31 31 33 33 31 27 26 26 24 20 22 22 23 42 37 25 17 5 5 19 20 11 10 2 9 21 9 4 5 7 6 4 5 8 5 12 10 13 12 17 9 14
30 31 32 33 33 33 31 32 33 31 27 29 27 25 19 21 17 21 36 35 23 17 4 4 5 6 17 8 4 15 20 9 3 11 5 6 9 4 4 8 10 16 6 10 11 6 7
31 31 32 33 33 32 31 33 33 31 29 31 29 27 17 15 17 12 21 30 26 16 2 3 5 8 13 14 8 6 19 9 7 6 5 4 5 5 12 12 9 7 5 6 8 8 11
32 32 33 34 33 32 31 32 34 31 33 38 32 23 16 23 19 21 24 34 25 4 6 7 6 6 9 8 5 5 8 6 3 5 8 7 4 5 8 7 14 1 3 4 3 5 9
32 33 32 33 32 32 31 32 34 31 41 39 29 28 30 28 26 27 44 35 4 4 2 8 5 7 8 7 5 5 7 8 5 4 4 3 15 6 5 5 3 12 2 3 4 6 7
32 32 32 33 32 31 29 34 30 36 41 28 20 15 16 27 23 23 41 4 4 5 4 5 6 9 5 5 4 7 5 7 11 5 1 4 4 11 9 13 6 14 11 5 5 5 3
32 32 33 32 31 29 30 32 32 37 43 24 8 1 12 22 22 20 16 3 6 6 8 10 11 6 4 4 3 5 8 5 7 13 5 3 4 2 7 3 11 5 10 10 9 13 9
32 32 32 32 31 29 31 28 33 37 39 18 1 4 10 14 21 14 3 4 3 5 12 11 5 5 10 9 7 8 6 2 4 10 12 1 5 3 1 6 10 9 1 4 5 5 9
33 33 32 31 30 30 30 27 33 34 37 7 5 4 7 16 20 9 2 1 5 7 10 4 4 5 5 7 8 6 3 3 5 1 9 4 4 3 4 9 10 8 7 7 3 4 5
33 33 32 31 29 30 30 27 30 33 34 17 5 0 9 17 3 1 2 5 6 3 5 3 4 4 4 7 6 6 6 5 11 9 8 7 3 5 11 10 15 19 19 17 7 11 5
32 32 32 29 29 29 30 25 32 35 31 35 2 3 21 26 2 2 2 4 5 3 2 2 3 3 2 5 3 5 4 3 16 9 10 8 4 5 6 2 6 10 18 19 12 4 13
32 31 30 30 30 29 31 24 33 33 36 8 2 2 7 10 0 4 5 3 4 5 3 5 4 4 3 3 4 0 4 3 16 10 10 13 4 7 9 15 9 8 14 19 18 7 17
30 31 30 29 30 28 31 26 32 34 27 4 1 3 3 2 2 7 3 4 5 3 2 4 3 5 4 4 4 6 7 3 5 12 7 9 7 10 19 26 23 24 25 17 20 24 11
30 30 29 29 29 28 30 25 27 34 23 9 3 2 3 3 10 7 5 5 7 4 5 5 2 7 7 5 7 5 3 4 5 3 7 5 5 4 21 21 22 19 16 15 20 21 23
30 30 28 27 27 28 29 22 22 27 29 9 14 3 4 11 6 6 4 6 7 7 4 2 9 4 8 11 14 16 13 7 3 4 10 4 3 3 13 10 17 5 5 9 11 16 14
29 29 28 27 26 25 26 24 23 23 27 24 13 6 4 4 6 5 7 3 5 5 3 2 8 5 4 5 7 11 14 14 12 13 12 6 2 3 8 9 4 3 2 8 15 14 17
30 28 25 26 26 26 26 25 23 23 28 27 7 4 4 3 7 8 8 5 3 10 4 1 3 7 8 3 2 3 2 2 7 13 10 13 6 4 4 7 8 1 6 1 4 6 18
26 26 24 24 25 26 26 28 24 22 26 23 6 3 3 4 8 11 6 10 4 4 1 3 11 9 8 2 2 3 4 3 3 2 4 5 11 3 3 4 4 3 4 2 5 3 5
26 25 22 22 23 24 24 26 21 20 25 22 6 5 3 2 6 14 5 8 7 5 1 3 4 3 7 2 3 4 4 3 3 3 4 4 3 8 7 4 7 5 5 2 2 4 6
23 23 22 21 22 21 22 24 19 19 21 21 1 8 5 2 8 7 12 8 8 9 3 4 2 1 2 3 3 3 3 4 1 3 5 6 5 4 2 3 6 1 2 2 3 10 8
23 23 22 22 21 21 22 21 18 18 17 20 7 5 3 2 4 8 8 7 10 8 9 11 2 4 6 3 3 2 3 2 3 3 0 2 5 3 6 5 4 4 7 8 9 11 11
Wind_Direction
357 355 353 351 347 342 342 341 337 337 329 302 304 277 268 266 259 261 284 293 262 248 244 249 250 240 215 212 237 234 262 232 215 209 215 209 194 139 163 187 157 214 257 257 265 286 279
353 352 349 347 343 342 338 334 335 334 330 320 296 316 266 258 258 253 259 284 262 244 239 241 241 231 217 218 242 237 239 223 198 195 202 211 203 199 171 186 181 215 263 275 280 268 264
349 346 347 344 343 341 336 333 329 328 328 321 307 302 304 252 247 244 242 266 264 240 234 235 236 231 236 247 245 232 200 195 165 174 199 210 210 176 181 180 213 253 281 277 245 243 242
345 344 345 344 342 343 337 335 329 325 322 320 314 294 306 273 244 236 238 228 249 228 219 222 231 250 247 244 232 225 190 169 153 165 170 181 201 206 209 332 323 222 206 261 254 210 242
345 344 343 340 336 335 333 333 328 324 317 314 313 302 286 301 240 231 228 220 209 207 207 212 234 245 264 245 239 217 193 187 163 155 129 120 142 148 123 165 283 230 243 225 296 204 259
340 338 337 332 331 331 330 329 327 321 316 314 311 307 302 278 248 226 221 200 185 189 185 194 236 270 243 148 157 180 185 184 193 192 184 173 162 150 156 186 223 215 234 247 228 325 360
332 331 333 332 330 329 328 327 323 319 312 317 309 303 298 272 274 217 208 164 145 179 182 201 197 236 100 136 142 151 173 166 151 158 165 161 209 210 202 202 219 136 258 262 271 299 313
330 331 332 330 330 329 325 323 319 316 306 314 316 304 294 286 281 228 204 179 182 166 180 227 233 230 200 113 130 149 165 159 149 161 131 142 232 231 242 222 240 248 262 270 288 278 278
331 330 328 328 328 325 325 325 320 317 313 315 318 314 293 287 264 241 195 196 187 189 93 221 228 228 219 227 231 183 171 158 132 139 190 189 175 192 193 212 239 237 241 261 270 295 280
326 330 328 328 330 327 325 323 321 321 322 317 306 304 285 289 283 248 199 185 184 185 80 230 204 220 196 174 261 215 186 163 158 193 167 240 233 191 174 221 209 255 209 246 258 272 273
329 329 327 328 330 327 324 323 325 324 313 308 302 298 272 272 269 293 198 164 169 158 59 155 154 149 164 167 142 181 194 193 163 179 164 218 186 175 222 235 178 236 192 209 225 240 279
330 325 328 326 330 327 325 327 324 317 312 310 299 280 255 272 268 246 188 166 151 79 240 160 134 173 152 191 153 126 176 187 185 216 229 218 183 171 196 214 199 113 286 275 243 229 245
324 327 329 330 331 329 330 328 325 321 318 322 302 270 252 249 242 236 166 142 106 150 170 155 160 166 171 162 167 160 169 182 185 179 224 247 235 195 179 202 187 182 202 229 231 215 249
328 329 330 332 333 331 331 328 326 323 324 323 300 278 238 219 200 163 156 136 110 156 160 134 126 130 165 136 202 178 156 203 214 191 168 221 303 192 186 214 189 190 197 218 231 214 250
335 335 334 335 335 335 332 332 328 330 332 337 291 165 169 191 189 173 171 126 169 173 145 132 124 144 176 200 186 170 209 214 195 187 199 195 263 14 199 204 216 176 215 232 268 265 268
333 335 338 338 337 337 335 333 330 339 342 3 316 201 211 199 181 189 184 122 109 116 116 137 131 172 178 187 171 184 195 225 208 180 195 173 276 205 258 189 240 231 191 180 197 248 243
338 338 340 340 340 339 337 335 336 341 343 355 300 265 167 164 161 159 127 142 90 103 120 145 122 141 156 164 174 185 202 265 199 133 160 142 187 229 139 206 212 197 222 213 249 217 252
338 340 342 343 344 341 345 336 336 343 341 337 302 202 130 162 104 111 150 139 111 109 70 93 94 104 140 158 168 194 211 227 185 146 167 185 222 249 229 217 204 219 223 216 229 217 214
342 342 344 344 346 343 342 334 339 344 339 331 245 67 145 166 130 150 167 73 92 107 112 94 89 68 101 152 173 202 182 210 172 166 167 166 214 295 292 8 230 229 224 220 234 242 228
343 345 346 348 345 347 344 337 344 346 350 13 111 90 93 169 158 116 128 81 94 63 82 91 98 96 94 202 221 149 218 247 198 193 179 172 210 218 252 265 255 247 233 224 221 235 246
344 347 348 348 346 350 348 347 348 350 7 138 121 80 150 150 193 166 80 110 111 138 66 117 143 210 167 222 211 220 220 259 174 189 193 178 252 238 252 261 271 267 267 237 214 230 229
345 345 345 348 345 350 350 351 352 355 16 31 24 137 133 110 143 151 127 196 168 136 145 177 233 185 193 222 217 175 183 179 216 128 171 202 264 267 274 270 268 269 274 235 220 228 239
344 344 345 347 347 350 349 352 351 356 13 357 344 349 118 161 156 155 176 168 184 124 235 172 207 200 224 248 241 256 257 249 221 166 193 208 239 276 286 319 301 262 262 209 215 219 225
345 344 342 345 345 350 348 351 349 354 359 353 328 276 132 145 159 183 161 125 127 163 117 239 182 190 226 220 261 278 252 245 225 246 219 240 207 249 288 308 295 288 316 259 216 232 225
343 345 344 343 343 346 348 350 347 353 352 352 333 262 136 130 173 181 163 166 132 247 204 196 193 243 251 227 341 323 274 267 235 228 226 214 226 280 283 316 278 138 330 42 177 270 232
345 343 345 343 343 344 347 347 351 353 350 353 101 36 170 129 199 173 149 172 158 172 187 263 258 265 196 200 218 227 230 236 289 173 25 172 212 218 323 285 292 279 315 288 128 313 330
345 344 348 342 341 343 346 341 351 352 353 352 137 19 138 133 171 164 155 167 165 143 164 137 174 176 192 195 230 228 234 205 239 200 173 160 181 230 249 278 281 271 306 288 23 290 348
344 342 341 339 339 342 336 341 355 351 350 354 226 52 34 35 149 172 178 164 160 181 164 150 123 189 157 228 231 216 199 230 223 216 183 178 162 203 190 258 291 191 353 74 251 306 310
345 343 343 340 338 333 334 340 345 342 339 356 330 121 86 48 170 195 205 204 208 199 182 162 241 143 214 250 223 233 215 187 194 272 167 239 191 198 183 224 261 266 250 299 313 296 306
Height
1511 1507 1503 1499 1496 1492 1488 1484 1481 1478 1477 1476 1474 1472 1471 1472 1474 1474 1475 1475 1475 1475 1474 1474 1475 1475 1477 1480 1479 1479 1478 1478 1480 1482 1487 1491 1492 1493 1496 1498 1499 1500 1498 1497 1496 1497 1497
1508 1505 1502 1498 1494 1490 1487 1483 1478 1475 1472 1470 1469 1467 1467 1467 1469 1471 1471 1473 1471 1473 1473 1472 1474 1475 1476 1478 1475 1476 1478 1478 1479 1481 1484 1488 1490 1493 1495 1497 1499 1498 1497 1496 1494 1494 1493
1508 1503 1499 1496 1491 1488 1484 1480 1476 1472 1469 1466 1463 1461 1460 1461 1462 1465 1466 1468 1470 1470 1470 1471 1473 1473 1473 1471 1472 1474 1476 1477 1478 1481 1483 1486 1489 1493 1495 1497 1497 1497 1498 1494 1490 1489 1489
1506 1502 1498 1493 1489 1485 1482 1477 1474 1469 1466 1462 1459 1457 1455 1453 1455 1458 1461 1463 1466 1467 1469 1470 1472 1472 1469 1467 1469 1472 1474 1476 1478 1480 1483 1486 1489 1492 1495 1497 1496 1497 1496 1493 1486 1485 1484
1505 1500 1496 1491 1486 1482 1478 1474 1470 1466 1462 1458 1454 1451 1449 1447 1448 1452 1456 1459 1462 1465 1467 1469 1471 1471 1466 1465 1467 1469 1472 1475 1478 1482 1484 1486 1489 1492 1495 1497 1498 1495 1494 1493 1487 1482 1481
1501 1497 1492 1487 1483 1478 1473 1470 1465 1460 1456 1452 1449 1446 1444 1443 1441 1447 1450 1454 1458 1463 1465 1468 1469 1472 1465 1464 1465 1467 1470 1474 1477 1481 1485 1487 1490 1492 1493 1494 1495 1492 1492 1488 1487 1484 1482
1499 1494 1489 1484 1478 1473 1469 1464 1460 1455 1451 1446 1443 1441 1439 1437 1436 1439 1444 1447 1457 1462 1462 1460 1462 1464 1462 1463 1465 1466 1468 1473 1476 1480 1484 1485 1487 1488 1487 1490 1489 1492 1492 1489 1485 1483 1483
1493 1490 1485 1479 1473 1469 1463 1459 1454 1449 1445 1441 1438 1435 1434 1432 1431 1431 1430 1435 1440 1446 1456 1457 1459 1461 1462 1462 1464 1465 1469 1473 1475 1480 1483 1487 1484 1481 1483 1486 1488 1487 1487 1485 1481 1483 1483
1490 1485 1480 1474 1467 1462 1457 1452 1447 1443 1438 1435 1433 1430 1428 1427 1424 1424 1421 1429 1436 1442 1450 1454 1453 1456 1461 1463 1462 1464 1468 1470 1473 1479 1480 1480 1478 1478 1483 1486 1487 1487 1486 1483 1483 1485 1481
1487 1481 1475 1468 1462 1456 1451 1446 1441 1436 1433 1430 1428 1425 1423 1422 1425 1420 1420 1424 1433 1442 1462 1452 1452 1451 1455 1460 1461 1462 1464 1468 1472 1475 1479 1479 1475 1478 1483 1484 1486 1485 1483 1482 1485 1489 1482
1483 1477 1470 1463 1457 1451 1445 1441 1435 1430 1426 1423 1420 1418 1418 1421 1417 1417 1419 1422 1429 1439 1476 1449 1449 1450 1451 1458 1457 1459 1462 1465 1468 1471 1475 1472 1472 1477 1478 1478 1483 1480 1478 1480 1482 1483 1481
1479 1472 1466 1459 1452 1446 1440 1435 1430 1425 1419 1413 1410 1409 1412 1413 1413 1413 1417 1420 1429 1446 1466 1442 1445 1446 1450 1455 1455 1458 1461 1464 1466 1467 1468 1469 1470 1471 1471 1472 1474 1475 1479 1479 1478 1479 1466
1474 1468 1461 1454 1447 1441 1436 1431 1424 1419 1411 1401 1396 1395 1399 1405 1406 1409 1412 1417 1433 1444 1434 1439 1440 1443 1445 1450 1453 1454 1458 1461 1462 1467 1468 1465 1462 1464 1467 1470 1471 1474 1478 1472 1469 1465 1451
1469 1463 1456 1449 1443 1436 1432 1426 1419 1413 1402 1392 1387 1384 1386 1392 1402 1403 1405 1416 1431 1422 1429 1430 1435 1441 1445 1447 1450 1452 1455 1457 1458 1461 1464 1461 1465 1459 1461 1460 1462 1465 1467 1461 1457 1456 1449
1466 1459 1452 1445 1439 1433 1428 1422 1415 1407 1395 1385 1384 1382 1384 1389 1397 1404 1408 1410 1410 1414 1418 1425 1437 1442 1446 1447 1449 1449 1452 1452 1450 1455 1460 1462 1462 1458 1459 1459 1461 1462 1461 1456 1457 1449 1448
1463 1456 1448 1442 1436 1430 1425 1419 1412 1403 1389 1385 1385 1385 1386 1390 1397 1403 1408 1402 1407 1407 1414 1421 1428 1436 1441 1444 1449 1449 1450 1447 1447 1447 1452 1458 1463 1454 1454 1456 1456 1455 1457 1457 1457 1447 1433
1459 1452 1445 1439 1433 1427 1421 1416 1410 1402 1393 1387 1385 1385 1385 1389 1397 1403 1403 1406 1406 1410 1413 1419 1424 1431 1433 1437 1442 1444 1446 1445 1445 1447 1449 1455 1461 1456 1453 1450 1444 1451 1449 1448 1445 1438 1426
1456 1449 1443 1437 1431 1425 1419 1414 1409 1401 1392 1385 1385 1384 1385 1390 1398 1404 1404 1403 1406 1413 1414 1417 1420 1425 1430 1435 1439 1441 1444 1444 1442 1445 1451 1451 1455 1454 1445 1432 1433 1434 1430 1433 1429 1421 1423
1453 1447 1441 1435 1429 1423 1418 1411 1406 1399 1392 1387 1383 1383 1390 1393 1398 1403 1405 1405 1407 1413 1416 1418 1422 1423 1427 1432 1439 1439 1442 1439 1440 1441 1444 1447 1450 1451 1436 1434 1429 1427 1418 1420 1422 1423 1413
1451 1445 1439 1434 1428 1422 1417 1410 1404 1395 1387 1384 1386 1388 1394 1401 1400 1402 1403 1407 1412 1415 1417 1418 1422 1425 1429 1431 1433 1437 1439 1436 1436 1438 1439 1441 1443 1438 1427 1418 1420 1416 1413 1415 1417 1412 1395
1449 1443 1438 1433 1427 1422 1416 1410 1402 1394 1386 1387 1387 1392 1395 1399 1403 1403 1402 1408 1414 1418 1418 1419 1424 1424 1427 1429 1431 1432 1435 1435 1435 1436 1438 1440 1436 1433 1423 1413 1413 1408 1402 1404 1403 1398 1402
1447 1442 1437 1432 1426 1421 1417 1412 1406 1398 1390 1388 1389 1390 1394 1396 1399 1401 1404 1410 1411 1415 1418 1421 1423 1422 1425 1426 1426 1429 1430 1432 1430 1432 1436 1436 1429 1426 1410 1406 1399 1395 1387 1387 1394 1395 1390
1445 1440 1435 1431 1426 1420 1416 1414 1409 1402 1399 1396 1395 1391 1393 1401 1401 1402 1405 1409 1411 1412 1417 1416 1418 1422 1424 1421 1423 1423 1425 1426 1426 1428 1430 1430 1430 1422 1398 1393 1387 1382 1377 1381 1383 1384 1384
1444 1439 1433 1428 1425 1422 1417 1411 1407 1404 1401 1399 1393 1393 1394 1397 1401 1402 1404 1407 1409 1412 1415 1416 1419 1421 1420 1419 1419 1419 1419 1420 1422 1421 1423 1422 1426 1423 1405 1394 1377 1372 1372 1368 1373 1371 1374
1443 1437 1432 1426 1422 1418 1415 1411 1407 1402 1397 1392 1390 1391 1392 1396 1399 1403 1403 1406 1410 1414 1415 1415 1416 1418 1418 1419 1418 1417 1415 1416 1412 1412 1415 1418 1420 1415 1403 1393 1380 1369 1374 1370 1372 1369 1364
1442 1436 1431 1427 1422 1416 1412 1407 1402 1401 1398 1392 1390 1390 1392 1394 1398 1398 1403 1406 1409 1413 1415 1414 1415 1415 1417 1416 1416 1414 1424 1411 1409 1410 1410 1411 1413 1414 1409 1398 1390 1370 1371 1369 1369 1364 1360
1439 1435 1430 1427 1422 1417 1412 1408 1405 1402 1397 1392 1391 1391 1393 1393 1393 1396 1398 1403 1406 1408 1410 1411 1412 1414 1416 1415 1415 1413 1413 1408 1409 1405 1408 1410 1410 1409 1405 1397 1387 1373 1371 1369 1371 1373 1362
1437 1433 1429 1425 1421 1418 1413 1409 1405 1401 1398 1393 1392 1392 1394 1393 1394 1395 1397 1400 1403 1405 1408 1411 1413 1412 1414 1414 1410 1409 1410 1406 1404 1401 1402 1402 1405 1398 1399 1398 1396 1372 1370 1372 1370 1362 1363
1434 1431 1427 1423 1419 1415 1412 1407 1405 1402 1399 1395 1392 1393 1394 1395 1396 1396 1397 1398 1400 1401 1403 1406 1409 1409 1410 1408 1407 1402 1399 1403 1403 1398 1396 1399 1392 1392 1392 1385 1370 1369 1368 1367 1366 1364 1360